DW2770 Cefalu IT current weather conditions

sailwx.info

Wind from 264 at 2 knots gusting 6

Air temperature 18.3° C
Dewpoint 5.9° C

Last reported at 2014-Oct-23 07:48 UTC.
Time now 2014-Oct-23 08:45 UTC

Location: N 38°02' E 014°02'.
View on Google Maps.

See reports from other nearby stations

  
Tides and Currents Weather Stations Pressure Air Temp Water Temp Dewpoint Dewpoint Depression Visibility Wind Speed Wind Dir Waves Ship Positions
date/time (UTC)wind fromknots sea level pressurealtimeterstation pressurevisibilityair tempwater tempwave heightnotes
2014-Oct-23 07:48 264 2 gusting 6 18.3
2014-Oct-23 07:38 292 2 gusting 6 18.3
2014-Oct-23 07:28 275 3 gusting 6 18.3
2014-Oct-23 07:18 357 5 gusting 7 18.3
2014-Oct-23 07:08 270 7 gusting 13 18.3
2014-Oct-23 06:58 270 5 gusting 7 17.8
2014-Oct-23 06:48 239 4 gusting 8 17.8
2014-Oct-23 06:38 315 2 gusting 8 17.8
2014-Oct-23 06:28 248 7 gusting 12 17.8
2014-Oct-23 06:18 273 4 gusting 12 17.8
2014-Oct-23 06:08 315 8 gusting 11 17.8
2014-Oct-23 05:59 180 6 gusting 8 17.8
2014-Oct-23 05:48 258 5 gusting 13 17.8
2014-Oct-23 05:38 315 6 gusting 13 17.8
2014-Oct-23 05:28 248 5 gusting 6 17.2
2014-Oct-23 05:18 291 5 gusting 5 17.2
2014-Oct-23 05:08 315 3 gusting 10 17.2
2014-Oct-23 04:58 270 4 gusting 14 17.2
2014-Oct-23 04:48 284 5 gusting 6 17.2
2014-Oct-23 04:38 248 7 gusting 15 17.2
2014-Oct-23 04:28 315 6 gusting 8 17.2
2014-Oct-23 04:18 338 6 gusting 13 17.2
2014-Oct-23 04:08 158 1 gusting 15 17.2
2014-Oct-23 03:58 315 10 gusting 12 17.2
2014-Oct-23 03:48 240 5 gusting 10 17.2
2014-Oct-23 03:38 202 6 gusting 17 17.2
2014-Oct-23 03:28 248 8 gusting 13 17.2
2014-Oct-23 03:18 292 8 gusting 17 17.8
2014-Oct-23 03:08 270 15 gusting 15 17.8
2014-Oct-23 02:58 315 7 gusting 14 17.8
2014-Oct-23 02:48 226 12 gusting 13 17.8
2014-Oct-23 02:38 248 6 gusting 19 17.8
2014-Oct-23 02:28 300 14 gusting 15 17.8
2014-Oct-23 02:18 292 11 gusting 13 17.8
2014-Oct-23 02:08 292 7 gusting 18 18.3
2014-Oct-23 01:58 277 17 gusting 18 18.3
2014-Oct-23 01:48 248 14 gusting 20 18.3
2014-Oct-23 01:38 270 15 gusting 17 18.3
2014-Oct-23 01:28 356 13 gusting 18 18.3
2014-Oct-23 01:18 270 11 gusting 15 18.3
2014-Oct-23 01:08 268 7 gusting 19 18.3
2014-Oct-23 00:58 288 10 gusting 13 18.3
2014-Oct-23 00:48 303 12 gusting 13 18.3
2014-Oct-23 00:38 338 10 gusting 13 18.3
2014-Oct-23 00:28 225 10 gusting 17 18.9
2014-Oct-23 00:18 202 8 gusting 22 18.9
2014-Oct-23 00:08 307 8 gusting 22 18.3
2014-Oct-22 23:58 292 11 gusting 21 18.3
2014-Oct-22 23:48 247 8 gusting 21 18.3
2014-Oct-22 23:38 248 17 gusting 17 18.3
2014-Oct-22 23:28 338 10 gusting 15 18.3
2014-Oct-22 23:18 270 12 gusting 15 17.8
2014-Oct-22 23:08 248 17 gusting 22 18.3
2014-Oct-22 22:58 192 12 gusting 17 18.9
2014-Oct-22 22:48 244 11 gusting 14 18.9
2014-Oct-22 22:38 225 11 gusting 19 18.9
2014-Oct-22 22:28 296 13 gusting 19 20.0
2014-Oct-22 22:18 208 13 gusting 14 20.0
2014-Oct-22 22:08 270 12 gusting 13 20.0
2014-Oct-22 21:58 292 14 gusting 18 20.0
2014-Oct-22 21:48 292 9 gusting 15 20.0
2014-Oct-22 21:38 315 12 gusting 14 20.0
2014-Oct-22 21:28 292 10 gusting 19 20.6
2014-Oct-22 21:18 290 7 gusting 14 20.6
2014-Oct-22 21:08 259 12 gusting 14 20.6
2014-Oct-22 20:58 269 10 gusting 13 20.6
2014-Oct-22 20:48 263 13 gusting 13 20.6
2014-Oct-22 20:38 292 8 gusting 11 20.6
2014-Oct-22 20:28 338 8 gusting 12 20.6
2014-Oct-22 20:18 244 6 gusting 8 20.6
2014-Oct-22 20:08 202 2 gusting 13 20.6
2014-Oct-22 19:58 312 13 gusting 13 20.6
2014-Oct-22 19:48 261 5 gusting 19 20.6
2014-Oct-22 19:38 292 8 gusting 10 20.6
2014-Oct-22 19:28 068 8 gusting 12 20.6
2014-Oct-22 19:18 292 6 gusting 17 20.6
2014-Oct-22 19:08 270 12 gusting 13 20.6
2014-Oct-22 18:58 292 10 gusting 12 20.6
2014-Oct-22 18:48 225 8 gusting 8 20.6
2014-Oct-22 18:38 338 8 gusting 12 20.6
2014-Oct-22 18:28 281 12 gusting 13 21.1
2014-Oct-22 18:18 225 6 gusting 10 21.1
2014-Oct-22 18:08 338 6 gusting 15 21.1
2014-Oct-22 17:58 259 9 gusting 18 21.1
2014-Oct-22 17:48 292 13 gusting 14 21.1
2014-Oct-22 17:38 315 5 gusting 19 21.1
2014-Oct-22 17:28 288 15 gusting 19 21.1
2014-Oct-22 17:18 292 10 gusting 13 20.6
2014-Oct-22 17:08 308 8 gusting 13 20.6
2014-Oct-22 16:58 285 7 gusting 13 21.1
2014-Oct-22 16:49 315 6 gusting 13 21.7
2014-Oct-22 16:38 215 6 gusting 13 21.1
2014-Oct-22 16:28 045 8 gusting 13 21.1
2014-Oct-22 16:18 292 10 gusting 13 21.1
2014-Oct-22 16:08 270 12 gusting 15 21.1
2014-Oct-22 15:58 158 6 gusting 15 21.1
2014-Oct-22 15:48 338 10 gusting 13 21.1
2014-Oct-22 15:39 210 11 gusting 14 21.1
2014-Oct-22 15:29 248 12 gusting 14 21.1
2014-Oct-22 15:19 21.1
2014-Oct-22 15:09 236 10 gusting 19 21.1
2014-Oct-22 14:59 225 11 gusting 12 21.7
2014-Oct-22 14:49 299 11 gusting 13 21.1
2014-Oct-22 14:39 292 12 gusting 13 21.1
2014-Oct-22 14:29 248 11 gusting 12 21.1
2014-Oct-22 14:19 237 11 gusting 13 21.1
2014-Oct-22 14:09 292 11 gusting 13 21.7
2014-Oct-22 13:59 292 12 gusting 17 21.1
2014-Oct-22 13:49 248 17 gusting 19 21.1
2014-Oct-22 13:39 315 13 gusting 13 21.7
2014-Oct-22 13:29 322 7 gusting 15 21.7
2014-Oct-22 13:19 312 7 gusting 17 21.7
2014-Oct-22 13:09 248 14 gusting 15 21.7
2014-Oct-22 12:59 289 14 gusting 15 21.7
2014-Oct-22 12:49 045 7 gusting 14 21.1
2014-Oct-22 12:39 21.1
2014-Oct-22 12:29 266 8 gusting 15 22.2
2014-Oct-22 12:19 225 15 gusting 15 22.2
2014-Oct-22 12:09 292 12 gusting 13 22.8
2014-Oct-22 11:59 245 12 gusting 15 23.3
2014-Oct-22 11:49 301 11 gusting 12 23.3
2014-Oct-22 11:39 180 10 gusting 13 23.3
2014-Oct-22 11:29 248 10 gusting 13 23.3
2014-Oct-22 11:19 286 8 gusting 19 23.3
2014-Oct-22 11:09 270 10 gusting 12 23.3
2014-Oct-22 10:59 281 11 gusting 12 23.3
2014-Oct-22 10:49 248 11 gusting 14 23.3
2014-Oct-22 10:39 338 12 gusting 14 23.3
2014-Oct-22 10:29 248 8 gusting 18 23.9
2014-Oct-22 10:19 315 8 gusting 14 23.9
2014-Oct-22 10:09 315 10 gusting 11 23.9
2014-Oct-22 09:59 279 6 gusting 10 23.9
2014-Oct-22 09:49 292 9 gusting 12 23.9
2014-Oct-22 09:39 270 10 gusting 10 23.9
2014-Oct-22 09:29 274 6 gusting 10 23.9
2014-Oct-22 09:19 315 5 gusting 8 23.9
2014-Oct-22 09:09 225 11 gusting 14 23.9
2014-Oct-22 08:59 228 11 gusting 11 23.9
2014-Oct-22 08:49 225 9 gusting 12 23.9
2014-Oct-22 08:39 248 7 gusting 10 23.9
2014-Oct-22 08:29 237 10 gusting 10 23.3
2014-Oct-22 08:19 225 8 gusting 14 23.3
2014-Oct-22 08:09 225 11 gusting 13 23.3
2014-Oct-22 07:59 236 10 gusting 11 23.3
2014-Oct-22 07:49 204 9 gusting 11 23.3
2014-Oct-22 07:39 225 8 gusting 15 22.8
2014-Oct-22 07:29 225 14 gusting 15 22.8
2014-Oct-22 07:19 202 12 gusting 13 22.8
2014-Oct-22 07:09 202 12 gusting 14 22.8
2014-Oct-22 06:59 224 14 gusting 14 22.8
2014-Oct-22 06:49 225 11 gusting 17 22.8
2014-Oct-22 06:39 248 14 gusting 15 22.2
2014-Oct-22 06:29 242 12 gusting 13 22.2
2014-Oct-22 06:19 227 13 gusting 13 22.2
2014-Oct-22 06:09 202 13 gusting 14 22.2
2014-Oct-22 05:59 225 12 gusting 12 22.2
2014-Oct-22 05:49 202 9 gusting 13 22.2
2014-Oct-22 05:39 202 12 gusting 13 22.2
2014-Oct-22 05:29 202 13 gusting 14 22.2
2014-Oct-22 05:19 247 7 gusting 14 22.2
2014-Oct-22 05:09 248 13 gusting 14 22.8
2014-Oct-22 04:49 225 11 gusting 15 22.2
2014-Oct-22 04:39 180 14 gusting 19 22.2
2014-Oct-22 04:29 225 16 gusting 17 22.2
2014-Oct-22 04:19 202 13 gusting 14 22.2
2014-Oct-22 04:09 225 9 gusting 15 22.2
2014-Oct-22 03:59 196 13 gusting 13 22.8
2014-Oct-22 03:49 180 13 gusting 13 22.8
2014-Oct-22 03:39 225 13 gusting 13 22.8
2014-Oct-22 03:29 225 12 gusting 15 22.8
2014-Oct-22 03:19 202 13 gusting 13 22.8
2014-Oct-22 03:09 225 7 gusting 13 22.8
2014-Oct-22 02:59 237 13 gusting 13 22.8
2014-Oct-22 02:49 202 8 gusting 12 22.8
2014-Oct-22 02:39 225 7 gusting 11 22.8
2014-Oct-22 02:29 225 7 gusting 8 23.3
2014-Oct-22 02:19 180 11 gusting 13 23.3
2014-Oct-22 02:09 248 6 gusting 7 23.3
2014-Oct-22 01:59 202 6 gusting 7 21.7
2014-Oct-22 01:49 202 0 gusting 2 20.6
2014-Oct-22 01:39 225 3 gusting 5 20.6
2014-Oct-22 01:29 169 1 gusting 1 20.6
2014-Oct-22 01:19 068 20.6
2014-Oct-22 01:09 202 20.6
2014-Oct-22 00:59 213 20.0
2014-Oct-22 00:49 202 0 gusting 0 20.0
2014-Oct-22 00:39 292 20.0
2014-Oct-22 00:29 261 20.0
2014-Oct-22 00:09 180 20.0
2014-Oct-21 23:59 191 20.6
2014-Oct-21 23:49 158 20.6
2014-Oct-21 23:29 237 2 gusting 2 21.1
2014-Oct-21 23:19 225 0 gusting 1 21.1
2014-Oct-21 23:09 202 20.6
2014-Oct-21 22:59 216 1 gusting 2 20.6
2014-Oct-21 22:49 225 1 gusting 1 20.0
2014-Oct-21 22:39 180 20.0
2014-Oct-21 22:29 202 1 gusting 1 20.0
2014-Oct-21 22:19 180 1 gusting 1 20.0
2014-Oct-21 22:09 202 19.4
2014-Oct-21 21:59 189 20.0
2014-Oct-21 21:49 202 4 gusting 4 20.0
2014-Oct-21 21:29 180 5 gusting 5 19.4
2014-Oct-21 21:09 180 4 gusting 6 18.9
2014-Oct-21 20:59 180 6 gusting 6 18.9
2014-Oct-21 20:49 180 3 gusting 6 19.4
2014-Oct-21 20:39 180 2 gusting 4 19.4
2014-Oct-21 20:29 202 4 gusting 6 19.4
2014-Oct-21 20:19 180 4 gusting 6 19.4
2014-Oct-21 20:09 202 2 gusting 6 19.4
2014-Oct-21 19:59 158 2 gusting 4 20.0
2014-Oct-21 19:49 180 1 gusting 4 20.0
2014-Oct-21 19:39 202 4 gusting 4 20.0
2014-Oct-21 19:29 202 4 gusting 4 20.0
2014-Oct-21 19:19 180 2 gusting 6 20.0
2014-Oct-21 19:09 202 4 gusting 6 20.6
2014-Oct-21 18:59 202 4 gusting 5 20.0
2014-Oct-21 18:49 202 3 gusting 5 20.0
2014-Oct-21 18:39 202 2 gusting 2 20.0
2014-Oct-21 18:29 202 2 gusting 2 19.4
2014-Oct-21 18:19 224 0 gusting 1 19.4
2014-Oct-21 18:09 180 0 gusting 1 18.9
2014-Oct-21 17:59 183 0 gusting 5 19.4
2014-Oct-21 17:49 180 1 gusting 4 19.4
2014-Oct-21 17:39 202 3 gusting 4 19.4
2014-Oct-21 17:29 180 4 gusting 6 19.4
2014-Oct-21 17:19 180 1 gusting 5 20.0
2014-Oct-21 17:09 202 2 gusting 2 19.4
2014-Oct-21 16:59 180 1 gusting 4 20.0
2014-Oct-21 16:49 202 2 gusting 4 20.0
2014-Oct-21 16:39 180 2 gusting 2 20.6
2014-Oct-21 16:29 195 2 gusting 2 21.1
2014-Oct-21 16:19 180 0 gusting 2 21.1
2014-Oct-21 15:59 180 22.2
2014-Oct-21 15:49 180 22.2
2014-Oct-21 15:39 202 22.8
2014-Oct-21 15:29 112 22.8
2014-Oct-21 15:19 068 22.2
2014-Oct-21 15:09 068 0 gusting 1 22.2
2014-Oct-21 14:59 050 1 gusting 1 22.2
2014-Oct-21 14:39 068 1 gusting 2 22.2
2014-Oct-21 14:29 068 2 gusting 2 22.8
2014-Oct-21 14:19 072 1 gusting 2 22.8
2014-Oct-21 14:09 068 1 gusting 2 22.8
2014-Oct-21 13:59 052 23.3
2014-Oct-21 13:39 202 1 gusting 4 22.8
2014-Oct-21 13:29 266 1 gusting 4 23.3
2014-Oct-21 13:19 251 1 gusting 2 22.8
2014-Oct-21 13:09 022 0 gusting 2 22.8
2014-Oct-21 12:59 270 1 gusting 2 22.8
2014-Oct-21 12:49 344 1 gusting 2 22.8
2014-Oct-21 12:39 248 3 gusting 4 22.8
2014-Oct-21 12:29 225 2 gusting 6 22.8
2014-Oct-21 12:19 282 5 gusting 6 22.8
2014-Oct-21 12:09 338 1 gusting 4 22.2
2014-Oct-21 11:59 270 1 gusting 6 22.8
2014-Oct-21 11:49 321 2 gusting 2 22.8
2014-Oct-21 11:39 270 2 gusting 2 22.8
2014-Oct-21 11:29 315 0 gusting 6 22.8
2014-Oct-21 11:19 205 0 gusting 6 22.8
2014-Oct-21 11:09 225 3 gusting 6 22.8
2014-Oct-21 10:59 338 2 gusting 2 22.8
2014-Oct-21 10:49 272 2 gusting 4 22.2
2014-Oct-21 10:39 270 3 gusting 4 22.2
2014-Oct-21 10:29 225 1 gusting 1 22.2
2014-Oct-21 10:19 313 0 gusting 2 22.2
2014-Oct-21 10:09 315 1 gusting 2 22.2
2014-Oct-21 09:59 292 21.7
2014-Oct-21 09:49 297 21.7
2014-Oct-21 09:39 202 4 gusting 4 21.7
2014-Oct-21 09:29 270 1 gusting 2 21.7
2014-Oct-21 09:19 313 1 gusting 2 21.7
2014-Oct-21 09:09 248 1 gusting 2 21.7
2014-Oct-21 08:59 338 1 gusting 2 21.7
2014-Oct-21 08:49 316 2 gusting 2 21.1
2014-Oct-21 08:39 292 1 gusting 1 21.1
2014-Oct-21 08:29 292 0 gusting 1 21.1
2014-Oct-21 08:19 270 1 gusting 1 21.1
2014-Oct-21 08:09 202 2 gusting 2 21.1